Weather Roundup
Issued by NWS Chicago, IL

Home | Current Version | Previous Version | Graphics & Text | Print | Product List | Glossary On
Versions: 1 2 3 4 5 6 7 8 9 10 11 12 13 14 15 16 17 18 19 20 21 22 23 24 25 26 27 28 29 30 31 32 33 34 35 36 37 38 39 40 41 42 43 44 45 46 47 48 49 50
000
NZUS59 KLOT 071808
HRRLOT

CHICAGO AREA WEATHER ROUNDUP
NATIONAL WEATHER SERVICE CHICAGO/ROMEOVILLE IL
1200 PM CST SUN FEB 07 2016

NOTE: "FAIR" INDICATES FEW OR NO CLOUDS BELOW 12,000 FEET WITH NO
SIGNIFICANT WEATHER AND/OR OBSTRUCTIONS TO VISIBILITY.

* THESE STATIONS ARE NOT UNDER NWS QUALITY CONTROL. THEY ALSO MAY NOT
  REPORT WEATHER SUCH AS PRECIPITATION OR FOG.

ILZ005-006-012>014-019>023-071900-
NORTHEAST ILLINOIS

CITY           SKY/WX    TMP DP  RH WIND       PRES   REMARKS
OHARE          CLOUDY    42  30  62 SW17G28   29.74F
6HR MIN TEMP:  38; 6HR MAX TEMP:  42;

MIDWAY         PTSUNNY   45  29  53 SW15G28   29.76F
6HR MIN TEMP:  38; 6HR MAX TEMP:  45;

AURORA         CLOUDY    42  32  67 W14G24    29.76F
6HR MIN TEMP:  36; 6HR MAX TEMP:  43;

LANSING*       CLOUDY    44  31  61 SW23      29.79F
WAUKEGAN       MOSUNNY   41  31  67 SW17G24   29.71F
6HR MIN TEMP:  37; 6HR MAX TEMP:  42;

DUPAGE AIRPORT MOSUNNY   41  29  62 SW21G26   29.75F
6HR MIN TEMP:  35; 6HR MAX TEMP:  42;

WHEELING       CLOUDY    42  29  59 SW12G24   29.74F
6HR MIN TEMP:  38; 6HR MAX TEMP:  43;

KANKAKEE*      MOSUNNY   46  32  57 SW21G26   29.82F
MORRIS*          N/A     44  32  61 W14       29.75F
LEWIS AIRPORT* MOSUNNY   43  31  63 SW15G24   29.77F
$$

WIZ051-052-058>065-066-070>072-071900-
SOUTHEAST WISCONSIN

CITY           SKY/WX    TMP DP  RH WIND       PRES   REMARKS
MILWAUKEE      PTSUNNY   42  29  59 SW18G28   29.68F
6HR MIN TEMP:  37; 6HR MAX TEMP:  43;

KENOSHA*       CLOUDY    40  30  67 W16       29.70F
RACINE*        MOSUNNY   42  30  62 W13G24    29.70F
BURLINGTON     MOSUNNY   39  29  68 SW17      29.70F
WAUKESHA       SUNNY     39  28  65 SW17G25   29.69F
$$

INZ001>003-010>013-019-020-071900-
NORTHWEST INDIANA

CITY           SKY/WX    TMP DP  RH WIND       PRES   REMARKS
GARY*          PTSUNNY   45  27  49 SW20G36   29.79F
MICHIGAN CITY* NOT AVBL
RENSSELAER*    NOT AVBL
VALPARAISO     MOSUNNY   47  30  51 SW22G29   29.79F
$$

LMZ740>746-071900-
SOUTHERN LAKE MICHIGAN

STATION/POSITION TIME  SKY/WX   TEMP WIND        PRES    VSBY
                                AIR  DIR/SP/G
                 (UTC)          (F)  (DEG/KT/KT) (MB)    (MI)
HARRISON CRIB    1700            43  240/ 17/ 22   N/A
BURNHAM HARBOR   1800            44  210/  9/ 19   N/A
CALUMET HARBOR   1700            43  220/ 11/ 19 1008.2
BURNS HARBOR     1700            43  220/ 17/ 28 1010.2
MICHIGAN CITY    1700            42  200/ 23/ 27   N/A
$$

ABBREVIATIONS USED IN REMARKS
   TC - TEMPERATURE IN CELSIUS
  WCI - WIND CHILL INDEX
   HX - HEAT INDEX
  VSB - VISIBILITY
$$



USA.gov is the U.S. government's official web portal to all federal, state and local government web resources and services.